Airfield :
LOGIN :

Register | Disclaimer

   EN    FR    IT 

 










Legend :    VFR   Marginal VFR   IFR   Intensive IFR   Very Intensive IFR
Visi :
Ceiling :
>= 8 km
>= 3000ft
5 to 8 km
1000 to 3000 ft
1500m to 5 km
500 to 1000 ft
800 to 1500m
200 to 500 ft
< 800m
< 200 ft
Symbols :   Thunderstorms  Fog  Heavy snow  Heavy precipitations  Wind > 20 kt
SIGMETs :     Misc.  Thunderstorms  Icing  Turbulence  Mountain Waves  Volcanic Ashes






- Airport Elevation : 453 ft
- IATA code : SBK


LFRT - St Brieuc Armor

CURRENT METAR :
  • 270200Z AUTO 21005KT 180V250 CAVOK 16/14 Q1012

EXPIRED METARs :
  • 270130Z AUTO 21004KT 180V240 CAVOK 16/14 Q1012
  • 270100Z AUTO 20003KT 160V250 CAVOK 16/14 Q1013
  • 270030Z AUTO 22004KT 170V270 CAVOK 16/14 Q1013
  • 270000Z AUTO 22004KT 190V250 9999 FEW042 OVC110 16/14 Q1013
  • 262330Z AUTO 23005KT 190V260 9999 SCT016 OVC110 17/15 Q1013

Expired Forecast.



MET'MAP, your aeronautical weather chart ! - Copyright ORBIFLY December 2007 - Disclaimer

ORBIFLY MET'MAP TEAM :

Programming & Development : Alexandra Zaïnal
Concept & original design : Baudouin d'Aumeries
Assistance for programming : Marc-Olivier Méhu
Technical & hardware support : Manuel Goepfert

Contact : metmap@orbifly.com




SOURCES & CREDITS :

   NOAA